FW6907 Weather Reports


time (UTC)temp
F
wind
direction
speed
knots
gust
knots
rain 1hr
in
rain 24hr
in
rain mn
in
humidity
%
barometer
mb
20260505183847 54 311 0.0 0.0 0.00 0.93 0.93 98 1005.9
20260505183343 54 342 0.9 1.7 0.00 0.93 0.93 98 1005.3
20260505182840 55 356 1.7 1.7 0.00 0.93 0.93 98 1005.3
20260505182337 55 358 0.0 0.9 0.00 0.93 0.93 98 1005.2
20260505181834 55 327 0.0 0.9 0.00 0.93 0.93 98 1005.2
20260505181331 56 347 1.7 2.6 0.05 0.93 0.93 98 1005.3
20260505180827 56 356 1.7 1.7 0.05 0.93 0.93 98 1005.2
20260505180324 57 310 0.9 1.7 0.00 0.92 0.92 98 1005.3
20260505175820 57 4 0.0 0.0 0.00 0.92 0.92 98 1005.3
20260505175317 57 0 0.0 0.0 0.00 0.92 0.92 98 1005.3
20260505174814 58 355 2.6 5.2 0.00 0.92 0.92 98 1005.3
20260505174311 58 322 0.9 1.7 0.00 0.92 0.92 98 1005.2
20260505173807 58 309 1.7 1.7 0.00 0.92 0.92 98 1005.2
20260505173303 58 7 0.0 0.0 0.00 0.92 0.92 98 1005.0
20260505172800 59 6 1.7 2.6 0.00 0.92 0.92 98 1004.9
20260505172258 59 343 0.9 1.7 0.00 0.92 0.92 98 1004.9
20260505171752 60 335 0.9 1.7 0.00 0.92 0.92 97 1004.8
20260505171249 60 350 1.7 1.7 0.00 0.92 0.92 98 1005.0
20260505170746 60 2 2.6 4.3 0.00 0.92 0.92 98 1005.1
20260505170243 60 343 1.7 1.7 0.00 0.92 0.92 98 1005.0
20260505165738 60 340 0.9 1.7 0.00 0.92 0.92 98 1005.2
20260505165235 60 336 2.6 4.3 0.00 0.92 0.92 98 1005.2
20260505164730 60 317 2.6 2.6 0.00 0.92 0.92 98 1004.9
20260505164228 60 317 0.9 0.9 0.00 0.92 0.92 98 1004.9
20260505163726 61 22 0.9 1.7 0.00 0.92 0.92 98 1004.8
20260505163224 60 22 1.7 1.7 0.00 0.92 0.92 98 1004.9
20260505162721 61 23 1.7 1.7 0.00 0.92 0.92 98 1005.1
20260505162218 61 23 0.9 0.9 0.00 0.92 0.92 98 1005.1
20260505161715 61 23 1.7 1.7 0.00 0.92 0.92 98 1005.0
20260505161213 61 25 1.7 1.7 0.00 0.92 0.92 98 1005.0
20260505160710 61 32 0.0 0.0 0.00 0.92 0.92 98 1005.1
20260505160207 61 32 0.0 0.0 0.00 0.92 0.92 98 1004.7
20260505153146 60 34 0.9 0.9 0.00 0.92 0.92 97 1004.4
20260505152643 60 31 0.9 0.9 0.00 0.92 0.92 97 1004.5
20260505152139 61 24 0.0 0.0 0.00 0.92 0.92 97 1004.6
20260505151634 60 343 2.6 2.6 0.00 0.92 0.92 97 1004.5
20260505151132 61 342 1.7 1.7 0.00 0.92 0.92 97 1004.6
20260505150628 61 341 0.9 1.7 0.00 0.92 0.92 97 1004.7
20260505150125 61 341 0.0 0.0 0.00 0.92 0.92 97 1004.7
20260505140553 60 294 0.0 0.0 0.00 0.92 0.92 97 1005.3
20260505125007 59 274 0.9 1.7 0.00 0.92 0.92 97 1004.9
20260505124504 59 274 0.9 1.7 0.07 0.92 0.92 97 1004.7
20260505124000 59 273 0.9 0.9 0.07 0.92 0.92 97 1004.6
20260505123456 59 273 0.0 0.9 0.00 0.91 0.91 97 1004.3
20260505122952 59 241 0.0 0.0 0.00 0.91 0.91 97 1004.5
20260505122450 59 241 0.9 0.9 0.00 0.91 0.91 97 1004.3
20260505121947 59 225 0.9 1.7 0.00 0.91 0.91 97 1004.2
20260505121443 59 208 0.9 0.9 0.00 0.91 0.91 97 1003.9
20260505120939 59 223 0.9 1.7 0.00 0.91 0.91 97 1004.1
20260505120436 59 223 0.9 0.9 0.00 0.91 0.91 97 1004.1
20260505115935 59 223 0.0 0.0 0.00 0.91 0.91 97 1004.0
20260505115432 59 222 1.7 1.7 0.00 0.91 0.91 97 1003.9
20260505114930 59 222 0.9 1.7 0.00 0.91 0.91 97 1003.7
20260505114426 59 199 1.7 1.7 0.00 0.91 0.91 97 1003.6
20260505113922 59 209 0.9 0.9 0.00 0.91 0.91 97 1003.7
20260505113419 59 202 0.9 1.7 0.00 0.91 0.91 97 1003.5
20260505112915 59 233 0.9 0.9 0.00 0.91 0.91 97 1004.0
20260505112413 59 212 3.5 4.3 0.00 0.91 0.91 97 1003.6
20260505111908 59 220 0.0 0.0 0.00 0.91 0.91 97 1003.7
20260505111403 59 219 1.7 2.6 0.00 0.91 0.91 97 1003.6
20260505110900 59 212 0.0 0.9 0.00 0.91 0.91 97 1003.8
20260505110357 59 211 1.7 1.7 0.00 0.91 0.91 97 1004.0
20260505101827 59 208 0.9 0.9 0.00 0.90 0.90 97 1004.6
20260505101322 59 205 2.6 2.6 0.07 0.90 0.90 97 1004.6
20260505100818 59 206 0.9 1.7 0.26 0.90 0.90 97 1004.7
20260505100315 59 206 0.0 0.0 0.47 0.89 0.89 97 1004.8
20260505095811 59 205 0.0 0.0 0.42 0.87 0.87 97 1004.9
20260505095309 60 299 1.7 1.7 0.31 0.81 0.81 97 1004.6
20260505094804 60 299 0.0 0.0 0.31 0.80 0.80 97 1004.8
20260505094301 59 299 0.0 0.0 0.19 0.77 0.77 97 1005.0
20260505093757 60 300 0.0 0.0 0.05 0.75 0.75 97 1004.9
20260505093255 60 300 0.0 0.0 0.47 0.74 0.74 97 1005.3
20260505092751 60 300 0.0 0.0 0.73 0.74 0.74 97 1005.2
20260505092249 60 301 0.0 0.0 0.42 0.67 0.67 97 1005.1
20260505091746 60 301 0.0 0.0 0.17 0.62 0.62 97 1005.0
20260505091244 60 301 0.0 0.0 0.17 0.60 0.60 97 1004.7
20260505090737 60 301 0.0 0.0 0.31 0.59 0.59 97 1004.8
20260505090235 60 301 0.0 0.0 0.19 0.57 0.57 97 1004.6
20260505085732 60 301 0.0 0.0 0.05 0.54 0.54 96 1004.9
20260505085230 60 301 0.0 0.0 0.24 0.54 0.54 96 1005.6
20260505084727 60 301 0.0 0.0 0.19 0.53 0.53 96 1004.3
20260505084226 60 300 0.0 0.0 0.14 0.51 0.51 96 1004.0
20260505083722 60 300 0.0 0.0 0.12 0.50 0.50 96 1004.7
20260505083219 60 300 0.0 0.0 0.12 0.49 0.49 96 1004.9
20260505082715 60 300 0.0 0.0 0.31 0.48 0.48 96 1004.8
20260505082212 60 300 0.0 0.0 0.35 0.47 0.47 96 1004.7
20260505081707 60 300 0.0 0.0 0.24 0.44 0.44 96 1005.2
20260505081205 60 301 0.0 0.0 0.35 0.41 0.41 96 1005.2
20260505080703 60 301 0.0 0.0 0.54 0.40 0.40 96 1005.3
20260505080158 60 302 0.0 0.0 0.52 0.36 0.36 96 1004.9
20260505075654 60 302 0.0 0.0 0.61 0.31 0.31 95 1005.1
20260505075152 60 302 0.9 1.7 0.92 0.27 0.27 95 1005.8
20260505074648 60 302 0.0 0.9 0.85 0.20 0.20 95 1005.9
20260505074145 60 284 0.0 0.0 0.54 0.13 0.13 95 1006.0
20260505073643 60 284 0.0 0.9 0.17 0.06 0.06 94 1005.7
20260505073141 60 284 0.0 0.0 0.12 0.04 0.04 93 1005.6
20260505072636 60 284 0.0 0.0 0.07 0.03 0.03 92 1005.0
20260505072133 61 284 0.9 0.9 0.05 0.02 0.02 91 1005.1
20260505071628 61 284 0.0 0.0 0.05 0.02 0.02 90 1005.6
20260505071127 61 284 0.9 0.9 0.00 0.01 0.01 88 1005.0
20260505070624 61 283 0.0 0.0 0.00 0.01 0.01 87 1005.1
20260505070120 62 284 0.9 1.7 0.00 0.01 0.01 86 1005.2
20260505065616 63 230 0.9 1.7 0.07 0.01 0.01 82 1005.3
20260505065113 64 210 0.0 0.9 0.07 0.01 0.01 81 1004.7
20260505064610 64 240 0.9 1.7 0.00 0.00 0.00 82 1004.3
20260505064108 65 241 0.9 1.7 0.00 0.00 0.00 76 1004.5
20260505063605 65 263 2.6 2.6 0.00 0.00 0.00 74 1004.9
20260505063101 65 254 2.6 4.3 0.00 0.00 0.00 74 1005.0
20260505062557 66 225 0.9 0.9 0.00 0.00 0.00 73 1005.4
20260505062055 66 226 1.7 1.7 0.00 0.00 0.00 72 1005.1
20260505061552 66 257 5.2 7.0 0.00 0.00 0.00 71 1005.3
20260505061050 66 219 3.5 6.1 0.00 0.00 0.00 72 1005.1
20260505060547 66 213 2.6 2.6 0.00 0.00 0.00 72 1005.3
20260505060044 66 228 2.6 2.6 0.00 0.00 0.00 71 1005.3
20260505055539 66 224 2.6 2.6 0.00 0.00 0.00 71 1005.3
20260505055036 66 231 2.6 5.2 0.00 0.00 0.00 71 1005.4
20260505054533 66 222 6.1 7.0 0.00 0.00 0.00 71 1005.2
20260505054032 66 237 4.3 5.2 0.00 0.00 0.00 71 1005.2
20260505053528 66 239 2.6 5.2 0.00 0.00 0.00 71 1005.1
20260505053025 66 224 7.0 7.8 0.00 0.00 0.00 72 1004.8
20260505052522 66 221 4.3 6.1 0.00 0.00 0.00 71 1005.0
20260505052019 66 225 6.1 7.0 0.00 0.00 0.00 71 1004.9
20260505051516 66 198 6.1 7.0 0.00 0.00 0.00 71 1004.7
20260505051014 66 184 4.3 7.8 0.00 0.00 0.00 71 1004.6
20260505050511 66 176 7.0 7.8 0.00 0.00 0.00 70 1004.7
20260505041434 66 205 3.5 5.2 0.00 0.00 0.00 70 1005.6
20260505040931 66 165 5.2 6.1 0.00 0.00 0.00 70 1005.7
20260505040428 66 227 5.2 7.0 0.00 0.00 0.00 70 1005.6
20260505035925 67 194 2.6 4.3 0.00 0.00 0.00 69 1005.9
20260505035421 67 232 6.1 7.0 0.00 0.00 0.00 69 1006.0
20260505034919 67 221 3.5 4.3 0.00 0.00 0.00 68 1005.9
20260505034415 67 169 4.3 5.2 0.00 0.00 0.00 69 1006.1
20260505033912 67 226 7.0 7.8 0.00 0.00 0.00 68 1005.8
20260505033409 67 211 2.6 5.2 0.00 0.00 0.00 68 1005.7
20260505032907 68 202 4.3 5.2 0.00 0.00 0.00 68 1005.8
20260505032403 68 207 4.3 5.2 0.00 0.00 0.00 67 1005.9
20260505031900 68 243 2.6 4.3 0.00 0.00 0.00 67 1006.3
20260505031357 68 208 3.5 5.2 0.00 0.00 0.00 67 1006.1
20260505030854 68 201 2.6 2.6 0.00 0.00 0.00 67 1006.1
20260505030350 68 206 3.5 6.1 0.00 0.00 0.00 66 1006.2
20260505025846 68 209 2.6 2.6 0.00 0.00 0.00 66 1006.1
20260505025344 68 185 4.3 5.2 0.00 0.00 0.00 66 1006.1
20260505024842 68 197 0.9 0.9 0.00 0.00 0.00 66 1005.9
20260505024340 68 202 1.7 1.7 0.00 0.00 0.00 66 1005.8
20260505023836 69 227 2.6 4.3 0.00 0.00 0.00 65 1006.0
20260505023333 69 215 3.5 5.2 0.00 0.00 0.00 64 1005.9
20260505022830 69 200 0.9 1.7 0.00 0.00 0.00 64 1005.9
20260505022327 69 245 3.5 6.1 0.00 0.00 0.00 64 1005.8
20260505021825 69 224 2.6 2.6 0.00 0.00 0.00 64 1005.6
20260505021321 69 243 2.6 4.3 0.00 0.00 0.00 63 1005.6
20260505020817 69 192 4.3 6.1 0.00 0.00 0.00 63 1005.6
20260505020313 69 226 3.5 5.2 0.00 0.00 0.00 63 1005.3
20260505015809 69 214 2.6 4.3 0.00 0.00 0.00 63 1005.4
20260505015307 70 208 0.9 1.7 0.00 0.00 0.00 62 1005.3
20260505014804 69 214 2.6 4.3 0.00 0.00 0.00 62 1005.1
20260505014301 70 164 0.9 1.7 0.00 0.00 0.00 61 1005.1
20260505013757 70 173 3.5 5.2 0.00 0.00 0.00 61 1005.0
20260505013255 70 228 5.2 7.0 0.00 0.00 0.00 61 1004.9
20260505012753 70 229 4.3 7.0 0.00 0.00 0.00 61 1004.9
20260505012250 71 264 5.2 7.8 0.00 0.00 0.00 60 1005.0
20260505011746 71 198 9.6 9.6 0.00 0.00 0.00 60 1004.8
20260505011243 71 243 8.7 8.7 0.00 0.00 0.00 60 1005.0
20260505010739 71 210 6.1 7.0 0.00 0.00 0.00 59 1004.9
20260505010235 71 200 4.3 7.8 0.00 0.00 0.00 59 1004.8
20260505005731 71 216 7.8 11.3 0.00 0.00 0.00 58 1004.7
20260505005228 71 228 13.9 18.2 0.00 0.00 0.00 58 1004.5
20260505004726 72 231 11.3 13.0 0.00 0.00 0.00 58 1004.7
20260505004222 72 183 6.1 8.7 0.00 0.00 0.00 58 1004.5
20260505003719 72 139 7.8 13.0 0.00 0.00 0.00 58 1004.6
20260505003217 72 188 7.0 11.3 0.00 0.00 0.00 58 1004.7
20260505002713 73 220 6.1 12.2 0.00 0.00 0.00 58 1004.4
20260505002211 73 261 7.0 15.6 0.00 0.00 0.00 58 1004.6
20260505001708 73 192 5.2 7.0 0.00 0.00 0.00 57 1004.4
20260505001205 73 195 5.2 7.0 0.00 0.00 0.00 58 1004.4
20260505000702 73 225 7.0 11.3 0.00 0.00 0.00 57 1004.4
20260505000200 74 230 4.3 11.3 0.00 0.00 0.00 56 1004.4
20260504235656 74 237 8.7 13.0 0.00 0.00 0.00 56 1004.3
20260504235153 74 163 4.3 6.1 0.00 0.00 0.00 55 1004.5
20260504234650 74 259 4.3 7.8 0.00 0.00 0.00 54 1004.5
20260504234147 74 247 6.1 8.7 0.00 0.00 0.00 54 1004.2
20260504233643 75 217 2.6 2.6 0.00 0.00 0.00 54 1004.3
20260504233139 75 184 7.8 13.0 0.00 0.00 0.00 53 1004.4
20260504232637 75 260 12.2 14.8 0.00 0.00 0.00 52 1004.3
20260504232134 75 219 6.1 7.8 0.00 0.00 0.00 53 1004.5
20260504231630 75 222 8.7 12.2 0.00 0.00 0.00 53 1004.3
20260504231127 75 201 2.6 4.3 0.00 0.00 0.00 52 1004.4
20260504230623 75 197 7.8 8.7 0.00 0.00 0.00 52 1004.3
20260504230122 75 219 3.5 5.2 0.00 0.00 0.00 53 1004.4
20260504225619 75 201 5.2 7.8 0.00 0.00 0.00 52 1004.4
20260504225115 75 227 4.3 7.0 0.00 0.00 0.00 53 1004.5
20260504224612 75 171 4.3 7.8 0.00 0.00 0.00 53 1004.4
20260504224109 76 197 4.3 7.8 0.00 0.00 0.00 52 1004.4
20260504223606 76 231 6.1 8.7 0.00 0.00 0.00 52 1004.4
20260504223102 76 209 7.0 7.8 0.00 0.00 0.00 51 1004.7
20260504222559 76 212 8.7 12.2 0.00 0.00 0.00 51 1004.7
20260504222056 76 234 2.6 6.1 0.00 0.00 0.00 52 1004.6
20260504221553 76 249 8.7 15.6 0.00 0.00 0.00 51 1004.8
20260504221050 76 209 4.3 8.7 0.00 0.00 0.00 51 1004.8
20260504220547 76 234 9.6 14.8 0.00 0.00 0.00 50 1004.8
20260504220044 76 149 5.2 9.6 0.00 0.00 0.00 50 1004.8
20260504215540 76 201 8.7 13.0 0.00 0.00 0.00 49 1005.1
20260504215038 76 211 8.7 11.3 0.00 0.00 0.00 49 1004.9
20260504214533 76 200 2.6 4.3 0.00 0.00 0.00 50 1004.9
20260504214030 76 178 6.1 8.7 0.00 0.00 0.00 49 1004.9
20260504213527 77 233 7.0 12.2 0.00 0.00 0.00 50 1005.0
20260504213024 77 260 10.4 19.1 0.00 0.00 0.00 49 1005.0
20260504212519 76 220 10.4 13.0 0.00 0.00 0.00 49 1005.2
20260504212017 76 221 14.8 18.2 0.00 0.00 0.00 49 1005.2
20260504211514 76 212 8.7 11.3 0.00 0.00 0.00 50 1004.8
20260504211011 77 183 7.0 11.3 0.00 0.00 0.00 48 1005.2
20260504210507 77 231 8.7 11.3 0.00 0.00 0.00 49 1005.3
20260504210005 77 256 10.4 17.4 0.00 0.00 0.00 48 1005.4
20260504205502 78 225 5.2 7.8 0.00 0.00 0.00 49 1005.2
20260504205000 77 228 6.1 9.6 0.00 0.00 0.00 48 1005.4
20260504204458 77 105 8.7 11.3 0.00 0.00 0.00 48 1005.7
20260504203957 77 138 13.0 20.0 0.00 0.00 0.00 46 1005.6
20260504203454 77 135 7.8 8.7 0.00 0.00 0.00 48 1005.6
20260504202950 78 196 9.6 15.6 0.00 0.00 0.00 48 1005.8
20260504202447 78 188 0.9 4.3 0.00 0.00 0.00 48 1005.7
20260504201944 77 201 7.0 11.3 0.00 0.00 0.00 48 1005.7
20260504201441 77 206 7.8 11.3 0.00 0.00 0.00 49 1005.8
20260504200939 77 229 13.0 20.0 0.00 0.00 0.00 48 1005.8
20260504200435 78 250 10.4 18.2 0.00 0.00 0.00 48 1006.0
20260504195932 77 238 8.7 14.8 0.00 0.00 0.00 48 1006.1
20260504195428 77 208 13.0 15.6 0.00 0.00 0.00 48 1006.2
20260504194924 77 230 13.0 17.4 0.00 0.00 0.00 48 1006.2
20260504194420 76 194 13.0 15.6 0.00 0.00 0.00 49 1006.1
20260504193917 76 190 12.2 20.0 0.00 0.00 0.00 49 1006.1
20260504193414 76 244 4.3 7.0 0.00 0.00 0.00 50 1006.3
20260504192913 76 198 10.4 13.0 0.00 0.00 0.00 49 1006.4
20260504192409 77 230 13.0 22.6 0.00 0.00 0.00 50 1006.4
20260504191909 76 207 17.4 21.7 0.00 0.00 0.00 50 1006.2
20260504191406 76 218 8.7 13.9 0.00 0.00 0.00 50 1006.4
20260504190901 77 221 14.8 19.1 0.00 0.00 0.00 50 1006.5
20260504190357 76 221 11.3 19.1 0.00 0.00 0.00 50 1006.4
20260504185854 76 266 10.4 15.6 0.00 0.00 0.00 51 1006.5
20260504185351 76 185 12.2 18.2 0.00 0.00 0.00 52 1006.4
20260504184847 76 291 7.8 17.4 0.00 0.00 0.00 51 1006.5
20260504184343 75 213 9.6 14.8 0.00 0.00 0.00 51 1006.4